• Processing (Info)

  • MPEC 2003-S63 : 2003 SG170

    The following Minor Planet Electronic Circular may be linked-to from your own Web pages, but must not otherwise be redistributed electronically.

    A form allowing access to any MPEC is at the bottom of this page.


    Read MPEC 2003-S62 Read MPEC 2003-S64


    M.P.E.C. 2003-S63                                Issued 2003 Sept. 25, 14:25 UT
    
         The Minor Planet Electronic Circulars contain information on unusual
             minor planets and routine data on comets.  They are published
       on behalf of Commission 20 of the International Astronomical Union by the
              Minor Planet Center, Smithsonian Astrophysical Observatory,
                              Cambridge, MA 02138, U.S.A.
    
             Supported in part by the Steven and Michele Kirsch Foundation
                 Prepared using the Tamkin Foundation Computer Network
    
                                  MPC@CFA.HARVARD.EDU
              URL http://cfa-www.harvard.edu/iau/mpc.html  ISSN 1523-6714
    
                                      2003 SG170
    
    Observations:
         K03SH0G* C2003 09 20.07678 02 23 11.81 +15 43 15.9          19.8 R      599
         K03SH0G  C2003 09 20.08725 02 23 11.63 +15 43 03.4          19.8 R      599
         K03SH0G  C2003 09 20.09771 02 23 11.42 +15 42 51.0          19.6 R      599
         K03SH0G  C2003 09 20.10815 02 23 11.20 +15 42 38.0          19.8 R      599
         K03SH0G  C2003 09 22.92863 02 22 14.28 +14 43 05.2                      246
         K03SH0G  C2003 09 22.92993 02 22 14.26 +14 43 04.6                      246
         K03SH0G  C2003 09 22.93199 02 22 14.11 +14 43 00.4                      246
         K03SH0G  C2003 09 22.93380 02 22 14.12 +14 42 59.6                      246
         K03SH0G  C2003 09 22.93507 02 22 14.13 +14 42 57.9                      246
         K03SH0G  C2003 09 22.93648 02 22 14.08 +14 42 56.0                      246
         K03SH0G  C2003 09 24.96683 02 21 19.59 +13 56 02.7          20.2 V      611
         K03SH0G  C2003 09 24.97044 02 21 19.49 +13 55 57.6          20.1 V      611
         K03SH0G  C2003 09 24.99878 02 21 18.52 +13 55 16.3          20.0 R      J95
         K03SH0G  C2003 09 25.01181 02 21 18.12 +13 54 56.4          20.5 R      J95
         K03SH0G  C2003 09 25.02542 02 21 17.69 +13 54 37.5          19.9 R      J95
    
    Observer details:
    246 Klet Observatory-KLENOT.  Observer M. Tichy.  1.06-m KLENOT Telescope
        + CCD.
    599 Campo Imperatore-CINEOS.  Observers A. Boattini, A. Di Paola.  0.60-m f/3
        Schmidt + CCD.
    611 Starkenburg.  Observer F. Hormuth.  0.45-m f/4.4 reflector + CCD.
    J95 Great Shefford.  Observer P. Birtwhistle.  0.30-m f/6.3 Schmidt-Cassegrain
        + CCD.
    
    Orbital elements:
    2003 SG170
    Epoch 2003 Sept. 18.0 TT = JDT 2452900.5                MPC
    M 297.98842              (2000.0)            P               Q
    n   0.39697439     Peri.  309.51776     -0.80584285     -0.55819381
    a   1.8335569      Node   199.37323     +0.52544613     -0.82794298
    e   0.5976335      Incl.   36.55652     -0.27299021     +0.05413033
    P   2.48           H   17.7           G   0.15
    From 15 observations 2003 Sept. 20-25.
    
    Ephemeris:
    2003 SG170               a,e,i = 1.83, 0.60, 37                  q = 0.7378
    Date    TT    R. A. (2000) Decl.     Delta      r     Elong.  Phase     V
    2003 09 18    02 23.68   +16 23.2    1.100    1.949   135.6    21.1    20.4
    2003 09 28    02 19.61   +12 39.4    0.952    1.877   147.6    16.6    19.9
    2003 10 08    02 10.81   +07 24.9    0.828    1.801   160.5    10.7    19.2
    2003 10 18    01 57.13   +00 32.6    0.734    1.722   168.8     6.4    18.7
    2003 10 28    01 39.33   -07 35.3    0.675    1.640   158.4    12.9    18.7
    2003 11 07    01 19.52   -15 57.9    0.652    1.555   141.4    23.4    18.8
    2003 11 17    01 00.60   -23 26.6    0.659    1.467   124.6    33.7    19.0
    2003 11 27    00 45.19   -29 24.2    0.684    1.376   109.6    42.5    19.2
    2003 12 07    00 34.87   -33 53.6    0.714    1.284    96.8    49.7    19.4
    2003 12 17    00 29.77   -37 18.4    0.741    1.189    85.9    55.6    19.4
    2003 12 27    00 29.16   -40 04.3    0.756    1.095    76.7    61.0    19.5
    2004 01 06    00 31.65   -42 34.5    0.754    1.002    69.0    66.3    19.4
    2004 01 16    00 35.01   -45 07.4    0.731    0.915    62.5    72.4    19.4
    2004 01 26    00 35.79   -47 55.5    0.685    0.838    56.9    79.8    19.3
    2004 02 05    00 27.68   -50 59.4    0.617    0.779    52.2    89.1    19.2
    2004 02 15    23 59.74   -53 38.0    0.533    0.744    47.9   100.0    19.3
    2004 02 25    23 00.92   -53 21.7    0.445    0.740    44.4   110.7    19.5
    2004 03 06    21 44.19   -45 35.3    0.373    0.768    43.8   116.5    19.6
    2004 03 16    20 45.08   -28 40.3    0.338    0.822    50.4   111.1    19.2
    2004 03 26    20 11.20   -08 10.0    0.348    0.895    63.0    96.7    18.6
    2004 04 05    19 51.31   +09 34.5    0.395    0.980    75.7    81.4    18.5
    2004 04 15    19 36.24   +22 51.9    0.461    1.072    85.7    69.0    18.6
    2004 04 25    19 20.65   +32 28.1    0.535    1.166    93.3    59.5    18.8
    2004 05 05    19 01.98   +39 13.9    0.613    1.261    99.1    52.2    19.1
    2004 05 15    18 39.70   +43 40.5    0.693    1.354   103.6    46.5    19.3
    2004 05 25    18 14.95   +46 04.6    0.776    1.445   107.1    42.1    19.6
    2004 06 04    17 50.39   +46 40.4    0.861    1.534   109.5    38.6    19.8
    2004 06 14    17 28.73   +45 47.0    0.950    1.620   111.0    35.8    20.1
    2004 06 24    17 11.81   +43 45.5    1.044    1.703   111.4    33.8    20.4
    2004 07 04    17 00.30   +40 57.8    1.144    1.782   111.0    32.2    20.6
    2004 07 14    16 53.87   +37 43.0    1.251    1.859   109.6    31.0    20.9
    2004 07 24    16 51.86   +34 15.0    1.365    1.932   107.6    30.1    21.1
    2004 08 03    16 53.50   +30 45.0    1.486    2.002   104.8    29.3    21.3
    2004 08 13    16 58.07   +27 20.4    1.613    2.069   101.5    28.7    21.6
    2004 08 23    17 05.03   +24 05.8    1.746    2.134    97.8    28.0    21.8
    2004 09 02    17 13.90   +21 04.9    1.885    2.195    93.7    27.3    22.0
    2004 09 12    17 24.30   +18 19.4    2.027    2.253    89.4    26.5    22.2
    
    Brian G. Marsden             (C) Copyright 2003 MPC           M.P.E.C. 2003-S63
    

    Read MPEC 2003-S62 Read MPEC 2003-S64


    MPEC number:

    Enter an MPEC number in one of the following forms:

    • 1997-B01 (the full form)
    • J97B01 (the packed version of the full form)
    • B01 (the abbreviated form)